Stanton, MN

1:18 PM CDT on August 21, 2017 (GMT -0500)
Stanton

Weather History for KSYN - February, 2013

Change the Weather History Date:

Thursday, February 28, 2013

  Actual Average (KLVN) Record (KLVN)
Temperature  
Mean Temperature 28 °F -  
Max Temperature 30 °F 33 °F 50 °F (1985)
Min Temperature 25 °F 17 °F -26 °F (1962)
Degree Days  
Heating Degree Days 38    
Moisture  
Dew Point 21 °F    
Average Humidity 71    
Maximum Humidity 77    
Minimum Humidity 67    
Precipitation  
Precipitation 0.00 in - - ()
Sea Level Pressure  
Sea Level Pressure 30.10 in    
Wind  
Wind Speed 12 mph (North)    
Max Wind Speed 17 mph    
Max Gust Speed 21 mph    
Visibility 10 miles    
Events      
Averages and records for this station are not official NWS values.
T = Trace of Precipitation, MM = Missing Value Source: NWS Daily Summary

Daily Weather History Graph

Daily Weather History Graph

Search for Another Location

Airport or City:

Trip Planner

Search our weather history database for the weather conditions in past years. The results will help you decide how hot, cold, wet, or windy it might be!

Date:

Astronomy

Feb. 28, 2013 Rise Set
Actual Time 6:50 AM CST 5:59 PM CST
Civil Twilight 6:21 AM CST 6:28 PM CST
Nautical Twilight 5:47 AM CST 7:02 PM CST
Astronomical Twilight 5:14 AM CST 7:35 PM CST
Moon 9:37 PM CST (2/28) 7:51 AM CST (2/28)
Length of Visible Light 12h 06m
Length of Day
11h 08m
Waning Gibbous, 90% of the Moon is Illuminated
Feb 28
Waning Gibbous
Mar 4
Last Quarter
Mar 11
New
Mar 19
First Quarter
Mar 27
Full

Hourly Weather History & Observations

Time (CST) Temp. Windchill Dew Point Humidity Pressure Visibility Wind Dir Wind Speed Gust Speed Precip Events Conditions
12:13 AM 29.3 °F 19.1 °F 22.8 °F 77% 29.98 in 10.0 mi NNW 12.7 mph - N/A   Overcast
12:32 AM 29.1 °F 17.9 °F 22.6 °F 77% 29.98 in 10.0 mi NNW 15.0 mph - N/A   Overcast
1:13 AM 29.3 °F 20.2 °F 22.6 °F 76% 29.99 in 10.0 mi NNW 10.4 mph - N/A   Overcast
1:32 AM 29.7 °F 19.1 °F 22.8 °F 76% 30.00 in 10.0 mi NNW 13.8 mph - N/A   Overcast
1:53 AM 30.0 °F 19.1 °F 22.6 °F 74% 30.00 in 10.0 mi North 15.0 mph - N/A   Overcast
2:13 AM 30.6 °F 20.7 °F 23.0 °F 74% 30.00 in 10.0 mi North 12.7 mph - N/A   Overcast
2:32 AM 30.4 °F 20.5 °F 22.8 °F 73% 30.00 in 10.0 mi North 12.7 mph - N/A   Overcast
2:53 AM 30.7 °F 20.0 °F 22.8 °F 72% 30.01 in 10.0 mi North 15.0 mph - N/A   Overcast
3:12 AM 30.9 °F 20.7 °F 23.0 °F 72% 30.00 in 10.0 mi North 13.8 mph - N/A   Overcast
3:53 AM 30.2 °F 21.3 °F 22.8 °F 74% 30.01 in 10.0 mi NNW 10.4 mph - N/A   Overcast
4:12 AM 30.2 °F 20.8 °F 22.6 °F 73% 30.02 in 10.0 mi NNW 11.5 mph - N/A   Overcast
4:33 AM 30.2 °F 20.2 °F 22.6 °F 73% 30.03 in 10.0 mi NNW 12.7 mph - N/A   Overcast
4:53 AM 30.2 °F 20.2 °F 22.5 °F 73% 30.04 in 10.0 mi NNW 12.7 mph - N/A   Overcast
5:12 AM 30.2 °F 21.3 °F 22.1 °F 72% 30.04 in 10.0 mi North 10.4 mph - N/A   Overcast
5:33 AM 30.6 °F 19.8 °F 21.9 °F 70% 30.04 in 10.0 mi North 15.0 mph - N/A   Overcast
5:52 AM 30.6 °F 20.2 °F 21.6 °F 69% 30.05 in 10.0 mi North 13.8 mph 20.7 mph N/A   Overcast
6:13 AM 30.2 °F 20.8 °F 21.6 °F 70% 30.06 in 10.0 mi North 11.5 mph - N/A   Overcast
6:33 AM 30.0 °F 20.5 °F 21.9 °F 72% 30.06 in 10.0 mi North 11.5 mph - N/A   Overcast
6:52 AM 30.2 °F 19.8 °F 21.0 °F 69% 30.06 in 10.0 mi North 13.8 mph - N/A   Overcast
7:13 AM 29.8 °F 18.0 °F 21.0 °F 70% 30.06 in 10.0 mi NNE 17.3 mph - N/A   Overcast
7:33 AM 29.7 °F 18.2 °F 21.0 °F 70% 30.07 in 10.0 mi NNE 16.1 mph - N/A   Overcast
7:52 AM 29.5 °F 19.3 °F 21.2 °F 71% 30.08 in 10.0 mi North 12.7 mph - N/A   Overcast
8:13 AM 29.5 °F 18.8 °F 21.2 °F 71% 30.09 in 10.0 mi NNE 13.8 mph - N/A   Overcast
8:33 AM 29.3 °F 19.1 °F 21.0 °F 71% 30.09 in 10.0 mi NNE 12.7 mph - N/A   Overcast
8:52 AM 28.9 °F 19.2 °F 21.2 °F 73% 30.10 in 10.0 mi NNE 11.5 mph - N/A   Overcast
9:13 AM 29.1 °F 18.9 °F 20.3 °F 70% 30.10 in 10.0 mi NE 12.7 mph - N/A   Overcast
9:32 AM 29.1 °F 18.9 °F 20.3 °F 70% 30.10 in 10.0 mi NNE 12.7 mph - N/A   Overcast
9:53 AM 28.9 °F 19.8 °F 20.8 °F 72% 30.11 in 10.0 mi NNE 10.4 mph - N/A   Overcast
10:13 AM 29.1 °F 20.0 °F 20.8 °F 71% 30.12 in 10.0 mi NNE 10.4 mph - N/A   Overcast
10:33 AM 29.1 °F 20.0 °F 21.2 °F 72% 30.12 in 10.0 mi North 10.4 mph - N/A   Overcast
10:52 AM 29.3 °F 18.6 °F 20.7 °F 70% 30.12 in 10.0 mi NNE 13.8 mph - N/A   Overcast
11:13 AM 29.1 °F 20.6 °F 20.8 °F 71% 30.12 in 10.0 mi NNE 9.2 mph - N/A   Overcast
11:33 AM 29.3 °F 19.1 °F 20.8 °F 71% 30.12 in 10.0 mi North 12.7 mph - N/A   Overcast
11:52 AM 29.5 °F 20.4 °F 21.0 °F 71% 30.13 in 10.0 mi North 10.4 mph - N/A   Overcast
12:13 PM 29.7 °F 20.1 °F 20.7 °F 69% 30.13 in 10.0 mi North 11.5 mph - N/A   Overcast
12:33 PM 29.8 °F 20.3 °F 20.8 °F 69% 30.13 in 10.0 mi North 11.5 mph - N/A   Overcast
12:52 PM 30.0 °F 20.0 °F 21.2 °F 70% 30.12 in 10.0 mi North 12.7 mph - N/A   Overcast
1:13 PM 29.8 °F 20.3 °F 21.2 °F 70% 30.12 in 10.0 mi NNE 11.5 mph - N/A   Overcast
1:33 PM 30.0 °F 20.5 °F 21.2 °F 70% 30.11 in 10.0 mi North 11.5 mph - N/A   Overcast
1:52 PM 30.2 °F 20.8 °F 21.2 °F 69% 30.11 in 10.0 mi North 11.5 mph - N/A   Overcast
2:13 PM 30.2 °F 20.2 °F 21.6 °F 70% 30.12 in 10.0 mi North 12.7 mph - N/A   Overcast
2:33 PM 30.0 °F 20.0 °F 21.6 °F 71% 30.11 in 10.0 mi North 12.7 mph - N/A   Overcast
2:52 PM 30.0 °F 20.0 °F 21.2 °F 70% 30.12 in 10.0 mi North 12.7 mph - N/A   Overcast
3:13 PM 30.0 °F 20.0 °F 21.2 °F 70% 30.12 in 10.0 mi NNE 12.7 mph - N/A   Overcast
3:33 PM 29.8 °F 20.3 °F 21.2 °F 70% 30.13 in 10.0 mi NNE 11.5 mph - N/A   Overcast
3:52 PM 29.7 °F 22.0 °F 21.2 °F 71% 30.13 in 10.0 mi North 8.1 mph - N/A   Overcast
4:13 PM 29.8 °F 21.5 °F 21.7 °F 72% 30.13 in 10.0 mi North 9.2 mph - N/A   Overcast
4:33 PM 29.7 °F 20.7 °F 21.2 °F 71% 30.13 in 10.0 mi North 10.4 mph - N/A   Overcast
4:52 PM 29.3 °F 19.6 °F 20.8 °F 71% 30.13 in 10.0 mi North 11.5 mph - N/A   Overcast
5:13 PM 29.1 °F 19.4 °F 20.3 °F 70% 30.13 in 10.0 mi North 11.5 mph - N/A   Overcast
5:33 PM 29.1 °F 19.4 °F 19.9 °F 69% 30.14 in 10.0 mi North 11.5 mph - N/A   Overcast
5:52 PM 28.9 °F 19.2 °F 19.6 °F 68% 30.15 in 10.0 mi North 11.5 mph - N/A   Overcast
6:13 PM 28.8 °F 20.2 °F 19.6 °F 69% 30.15 in 10.0 mi North 9.2 mph - N/A   Overcast
6:33 PM 28.4 °F 19.1 °F 19.8 °F 70% 30.15 in 10.0 mi North 10.4 mph - N/A   Overcast
6:52 PM 28.4 °F 21.2 °F 19.4 °F 69% 30.16 in 10.0 mi North 6.9 mph - N/A   Overcast
7:12 PM 28.0 °F 20.0 °F 19.4 °F 70% 30.16 in 10.0 mi North 8.1 mph - N/A   Overcast
7:33 PM 28.0 °F 20.0 °F 18.9 °F 68% 30.16 in 10.0 mi North 8.1 mph - N/A   Overcast
7:52 PM 27.9 °F 19.8 °F 19.2 °F 70% 30.16 in 10.0 mi North 8.1 mph - N/A   Overcast
8:13 PM 27.9 °F 20.6 °F 19.2 °F 70% 30.16 in 10.0 mi North 6.9 mph - N/A   Overcast
8:33 PM 27.5 °F 21.1 °F 19.4 °F 72% 30.17 in 10.0 mi NE 5.8 mph - N/A   Overcast
8:53 PM 27.5 °F 19.3 °F 18.9 °F 70% 30.17 in 10.0 mi NE 8.1 mph - N/A   Overcast
9:12 PM 27.3 °F 19.1 °F 17.8 °F 67% 30.17 in 10.0 mi NE 8.1 mph - N/A   Overcast
9:33 PM 26.6 °F 17.5 °F 17.8 °F 69% 30.17 in 10.0 mi NNE 9.2 mph - N/A   Overcast
9:53 PM 26.4 °F 17.3 °F 17.8 °F 70% 30.18 in 10.0 mi NNE 9.2 mph - N/A   Overcast
10:12 PM 26.1 °F 16.2 °F 17.6 °F 70% 30.18 in 10.0 mi NNE 10.4 mph - N/A   Overcast
10:33 PM 25.7 °F 16.4 °F 18.0 °F 73% 30.17 in 10.0 mi NE 9.2 mph - N/A   Overcast
10:53 PM 25.5 °F 16.9 °F 18.1 °F 74% 30.18 in 10.0 mi NNE 8.1 mph - N/A   Overcast
11:12 PM 25.5 °F 16.9 °F 18.1 °F 74% 30.18 in 10.0 mi NNE 8.1 mph - N/A   Overcast
11:33 PM 25.5 °F 15.5 °F 17.4 °F 71% 30.18 in 10.0 mi NNE 10.4 mph - N/A   Overcast
11:52 PM 25.3 °F 16.0 °F 17.4 °F 72% 30.18 in 10.0 mi NNE 9.2 mph - N/A   Overcast